User: anonymous   Login
Location: Unspecified
(0.0000°N, 0.0000°E)
Time: 09:46:09
(UTC+01:00)
Language:

Cosmos 1980 Rocket - Orbit

View from above orbital plane
View from above orbital plane
View from above satellite
View from above satellite

Ground track
Ground track

The orbit data is extracted from the following two-line orbital elements,

1 19650U 88102B   14329.88496589 -.00000014  00000-0  17424-4 0  4371
2 19650 070.9981 179.5756 0013618 173.0996 276.3826 14.15685773343765
Epoch (UTC): 25 November 2014 21:14:21
Eccentricity: 0.0013618
inclination: 70.9981°
perigee height: 830 km
apogee height: 850 km
right ascension of ascending node: 179.5756°
argument of perigee: 173.0996°
revolutions per day: 14.15685773
mean anomaly at epoch: 276.3826°
orbit number at epoch: 34376

The dashed part of the orbit path shows where the satellite is in the earth's shadow,  

DLR